www.pogodaiklimat.ru

Погода и климат >> Архив погоды >> Россия >> город Санкт-Петербург >> Санкт-Петербург


АРХИВ ПОГОДЫ в Санкт-Петербурге

Время (UTC), дата Ветер
(напр.,м/с)
 
Видим.   Явления Облачность Т
(С)
Тd
(С)
f
(%)
Тe
(С)
Тes
(С)
Комфортность P
(гПа)
Po
(гПа)
Тmin
(С)
Tmax
(С)
R
(мм)
R24
(мм)
S
(см)
21 11.06 С 1 10 км 10/0
[Ac As Cs]
+16.3 +8.2 59 +17 +17 тепло 1021.8 1021.1
00 12.06 СВ 1 10 км 3/0
[Cs]
+14.4 +3.9 49 +15 +15 тепло 1022.2 1021.5
03 12.06 СВ 2 10 км 5/0
[Ac As Cc]
+12.7 +7.1 69 +12 +13 по сезону 1023.2 1022.5 +12.7
06 12.06 СВ 2 10 км 3/0
[Ac trans]
+15.5 +6.4 55 +16 +22 по сезону 1024.3 1023.6 +12.7
09 12.06 СВ 2 10 км 8/0
[Ci fib]
+15.9 +1.0 36 +16 +28 опасность
простуды
1025.9 1025.2
12 12.06 В 2 10 км 6/0
[Ac trans Cs]
+15.7 +0.2 35 +16 +26 по сезону 1026.8 1026.1
15 12.06 СВ 2 10 км 5/0
[Cs]
+15.0 -0.3 35 +15 +19 по сезону 1026.9 1026.2
18 12.06 В 1 10 км 8/0
[Cs]
+13.1 +0.2 41 +14 +14 по сезону 1026.7 1026.0 +16.7
21 12.06 В 1 10 км 8/0
[Ac trans Cs]
+10.9 +3.4 60 +11 +11 прохладно 1027.6 1026.9
00 13.06 В 2 10 км 8/0
[Ac trans]
+10.7 -0.8 45 +10 +10 по сезону 1028.5 1027.7
03 13.06 В 2 10 км 8/0
[Ac trans]
+10.1 +0.8 52 +9 +10 прохладно 1028.1 1027.3 +9.2
06 13.06 В 2 10 км 4/0
[Ac As Cs]
+13.6 +2.3 46 +13 +19 по сезону 1027.5 1026.8 +9.2
09 13.06 ЮВ 2 10 км 10/0
[Ac As Cs]
+17.3 +2.6 37 +18 +25 тепло 1026.4 1025.7
12 13.06 В 3 10 км 10/0
[As trans Cs]
+18.7 +2.3 33 +19 +24 тепло 1024.1 1023.4
15 13.06 ЮВ 2 10 км 4/0
[As trans Cs]
+19.8 +2.5 32 +21 +25 комфорт 1022.5 1021.8 0.0
18 13.06 В 3 10 км 9/0
[Ac As Cs]
+18.8 +4.0 37 +19 +19 тепло 1020.8 1020.1 +20.2
21 13.06 В 1 4000 м в посл. час дождь {ливн. осадки} 10/5 1000 м
[Sc diur, vesp As trans]
+14.4 +9.1 70 +15 +15 по сезону 1019.9 1019.1
00 14.06 В 1 10 км {гроза, ливн. осадки} 10/8 1000 м
[Sc diur, vesp As trans]
+13.3 +10.0 80 +13 +13 по сезону 1017.6 1016.9
03 14.06 В 1 10 км 10/8 1000 м
[Sc diur, vesp As trans]
+13.9 +9.2 73 +14 +14 по сезону 1015.7 1015.0 +13.2 2
06 14.06 В 1 10 км 10/4 1000 м
[Sc diur, vesp Ac und]
+15.0 +9.8 71 +16 +17 по сезону 1016.0 1015.3 +13.2 2
09 14.06 СВ 2 10 км 10/0
[Ac und]
+16.6 +10.5 67 +17 +21 по сезону 1016.9 1016.2
12 14.06 СВ 1 20 км 10/0
[Ac und]
+16.4 +10.2 67 +17 +22 по сезону 1017.7 1017.0
15 14.06 СВ 1 10 км 10/0
[Ac und]
+17.3 +10.6 65 +18 +20 по сезону 1016.6 1015.9
18 14.06 В 1 10 км 10/10 600 м
[Sc]
+15.3 +10.6 74 +16 +16 по сезону 1016.2 1015.5 +17.6
21 14.06 штиль 0 10 км 10/10 300 м
[Sc]
+14.9 +11.6 81 +15 +15 по сезону 1016.2 1015.5
00 15.06 З 2 10 км 10/10 200 м
[Sc]
+13.4 +11.7 89 +13 +13 по сезону 1015.2 1014.5
03 15.06 З 3 2000 м слаб. морось 10/10 100 м
[St]
+13.5 +12.2 92 +12 +12 по сезону 1014.7 1014.0 +13.2 0.0
06 15.06 З 2 2000 м слаб. морось 10/10 100 м
[St]
+13.6 +12.3 92 +13 +13 по сезону 1014.9 1014.2 +13.2 0.5
09 15.06 З 4
{10}
10 км в посл. час морось 10/10 200 м
[St]
+14.3 +11.9 85 +13 +13 прохладно 1015.3 1014.6
12 15.06 З 3 10 км {морось} 10/10 200 м
[Sc]
+14.7 +11.9 83 +14 +14 прохладно 1016.0 1015.3
15 15.06 З 2 10 км 10/10 300 м
[Sc]
+15.0 +12.0 82 +15 +15 прохладно 1016.1 1015.4 0.0
18 15.06 З 1 4000 м слаб. морось 10/10 200 м
[St]
+14.3 +12.5 89 +15 +15 по сезону 1016.2 1015.5 +15.1 0.0
21 15.06 штиль 0 10 км {дождь, морось} 8/0
[Ac As]
+14.4 +12.8 90 +14 +14 по сезону 1015.7 1015.0
00 16.06 З 1 10 км {дождь, морось} 10/10 300 м
[Sc]
+14.4 +12.4 88 +15 +15 тепло 1015.9 1015.2
03 16.06 штиль 0 10 км 8/0 200 м
[Ac As]
+14.8 +12.8 88 +14 +15 по сезону 1015.7 1015.0 +13.9 0.4
06 16.06 З 1 10 км 9/9 200 м
[Cu Sc]
+15.9 +13.2 84 +17 +17 тепло 1016.0 1015.3 +13.9 0.4
09 16.06 З 3 10 км 6/6 1000 м
[Cu med, cong]
+19.0 +12.1 64 +20 +25 тепло 1016.0 1015.3
12 16.06 ЮЗ 3 10 км ясно +20.4 +11.1 55 +22 +33 комфорт 1014.9 1014.2
15 16.06 З 3 10 км ясно +21.5 +10.8 51 +23 +27 комфорт 1014.1 1013.4
18 16.06 З 2 10 км ясно +18.0 +10.8 63 +19 +19 тепло 1013.7 1013.0 +22.3
21 16.06 ЮЗ 1 10 км 6/0
[Ac As]
+15.4 +12.2 81 +16 +16 по сезону 1013.0 1012.3
00 17.06 З 1 10 км 1/0
[Ac trans]
+14.7 +11.3 80 +15 +15 тепло 1013.0 1012.3
03 17.06 штиль 0 10 км 8/0
[Ac trans]
+16.0 +11.0 72 +16 +17 тепло 1012.9 1011.9 +13.5
06 17.06 ЮЗ 2 10 км 1/0
[Ac trans]
+18.7 +11.7 64 +20 +27 тепло 1012.3 1011.6 +13.5
09 17.06 З 2 10 км 8/1 1000 м
[Cu med, cong Cs]
+21.8 +13.2 58 +24 +35 комфорт 1012.3 1011.6
12 17.06 З 3 10 км 8/3 1000 м
[Cu med, cong Ci fib]
+23.2 +11.4 47 +25 +32 комфорт 1012.2 1011.5
15 17.06 З 2 10 км 8/0
[Ac trans Cs]
+21.8 +8.9 44 +23 +26 комфорт 1012.2 1011.5
18 17.06 З 2 10 км 5/0
[Ac trans Ci fib]
+19.2 +12.6 66 +21 +21 комфорт 1011.5 1010.8 +23.7
21 17.06 З 3 10 км 10/0
[Ac trans]
+17.3 +12.8 75 +17 +17 тепло 1012.2 1011.5
00 18.06 З 3 10 км 9/0
[Ac trans]
+16.4 +9.8 65 +16 +16 тепло 1012.5 1011.8
03 18.06 З 2 10 км 3/0
[Ac trans]
+15.3 +9.8 70 +15 +16 по сезону 1012.8 1012.1 +15.2
06 18.06 З 3 10 км ясно +18.2 +11.6 65 +19 +25 тепло 1013.3 1012.6 +15.1
09 18.06 З 3 10 км 3/0
[Ac As]
+22.0 +11.5 51 +24 +33 комфорт 1013.6 1012.9
12 18.06 З 4-10
{10}
10 км ясно +21.4 +12.1 55 +24 +32 комфорт 1014.3 1013.6
15 18.06 З 4
{12}
10 км ясно +20.5 +10.5 53 +22 +26 комфорт 1014.8 1014.1
18 18.06 З 3
{11}
10 км ясно +18.3 +10.1 59 +19 +19 тепло 1014.7 1014.0 +23.0

 

Местоположение метеостанции Санкт-Петербург (город Санкт-Петербург, Россия): широта 59.97 долгота 30.30 высота над уровнем моря 6 м.

В архиве по умолчанию представлена погода в Санкт-Петербурге за последнюю неделю. Архивные данные за месяц целиком и за предыдущие месяцы, начиная с января 2011 года, Вы можете получить, выбрав интересующий диапазон дат из раскрывающегося списка и нажав кнопку "Ввод!".


*Определитесь, кто Вы:
робот инопланетянин человек

Внимание! Время в таблицах - всемирное. Для получения местного времени необходимо прибавить поправку, которая равна 3 ч.

Смотрите также архив погоды в соседних городах и на ближайших метеорологических станциях:

Погода в Лисьем Носу (город Санкт-Петербург, Россия) (19 км)
Погода в Воейково (город Санкт-Петербург, Россия) (22 км)
Погода в Ломоносове (город Санкт-Петербург, Россия) (29 км)
Погода в Кронштадте (город Санкт-Петербург, Россия) (30 км)
Погода в Шлиссельбурге (Ленинградская область, Россия) (39 км)
Погода в Рощино (Ленинградская область, Россия) (48 км)
Погода в Шепелево (Ленинградская область, Россия) (58 км)
Погода в Сосново (Ленинградская область, Россия) (65 км)
Погода в Сосновом Бору (Ленинградская область, Россия) (65 км)
Погода в Белогорке (Ленинградская область, Россия) (70 км)

Пояснения к столбцам:

Ветер - указаны скорость ветра в м/с - средняя за 10 мин, порывы в срок и между сроками (в фигурных скобках) и направление, откуда дует ветер: С - северный, СВ - северо-восточный, В - восточный, ЮВ - юго-восточный, Ю - южный, ЮЗ - юго-западный, З - западный, СЗ - северо-западный.
Видимость - горизонтальная дальность видимости в метрах или километрах. При видимости от 1 до 10 км при отсутствии осадков обычно наблюдается дымка, при ухудшении видимости до 1 км и менее - туман. В сухую погоду видимость может ухудшаться дымом, пылью или мглою.
Явления - указаны атмосферные явления, наблюдавшиеся в срок или в последний час перед сроком; фигурными скобками обозначены явления, наблюдавшиеся между сроками (за 1-3 часа до срока); квадратными скобками обозначены град или гололедные отложения с указанием их диаметра в мм.
Облачность - указаны через наклонную черту общая и нижняя облачность в баллах и высота нижней границы облаков в метрах; квадратными скобками обозначены формы облаков: Ci - перистые, Cs - перисто-слоистые, Cc - перисто-кучевые, Ac - высококучевые, As - высокослоистые, Sc - слоисто-кучевые, Ns - слоисто-дождевые, Cu - кучевые, Cb - кучево-дождевые. Подробнее классификацию облаков см. в Атласе облаков (PDF).
T - Температура воздуха - температура, измеренная на высоте 2 м над землей.
Td - Температура точки росы - температура, при понижении до которой содержащийся в воздухе водяной пар достигнет насыщения.
f - Относительная влажность воздуха - влажноcть воздуха, измеренная на высоте 2 м над землей.
Te - Эффективная температура - температура, которую ощущает одетый по сезону человек в тени. Характеристика душности погоды. При расчете учитывается влияние влажности воздуха и скорости ветра на теплоощущения человека.
Tes - Эффективная температура на солнце - температура, которую ощущает человек, с поправкой на солнечный нагрев. Характеристика знойности погоды. Зависит от высоты солнца над горизонтом, облачности и скорости ветра. Ночью, в пасмурную погоду, а также при ветре 12 м/с и более поправка равна нулю.
P - Атмосферное давление - приведенное к уровню моря атмосферное давление.
Po - Атмосферное давление - измеренное на уровне метеостанции атмосферное давление.
Tmin - Минимальная температура - минимум температуры воздуха на высоте 2 м над землей.
Tmax - Максимальная температура - максимум температуры воздуха на высоте 2 м над землей.
R - Количество осадков - Количество выпавших осадков за период времени, мм. При наведении курсора мыши на число - период времени, за который выпало указанное количество осадков.
R24 - Количество осадков - Количество выпавших осадков за 24 часа, мм.
S - Снежный покров - Высота снежного покрова, см. При наведении курсора мыши на число - состояние снежного покрова и степень покрытия местности в баллах.